Theta_e
312 311 311 310 311 312 312 311 312 314 313 313 311 311 311 314 312 311 313 313 314 313 311 311 310 310 312 313 310 308 307 306 305 307 308 308 307 307 307 308 307 306 306 305
310 316 313 312 312 313 312 310 313 312 312 309 310 310 309 312 311 312 312 313 314 312 310 310 310 312 312 310 309 307 306 305 308 307 307 307 307 307 307 307 305 305 305 305
313 314 312 312 310 313 311 311 313 315 313 312 311 309 313 312 313 314 315 314 313 313 312 312 312 311 310 311 308 307 305 308 307 307 307 306 306 305 305 305 304 304 304 304
311 312 312 312 312 311 313 311 313 313 310 311 309 307 307 313 312 312 314 313 313 313 312 312 313 311 311 309 307 305 308 307 307 307 306 306 305 304 304 304 304 304 304 304
312 313 313 313 312 311 314 312 313 314 312 308 311 307 308 312 313 311 311 314 313 313 313 313 313 312 311 307 305 308 307 307 307 307 306 305 304 304 303 303 303 303 304 304
312 312 311 311 311 311 311 311 312 313 310 306 310 308 309 311 313 312 311 313 313 313 313 312 312 311 308 306 307 308 307 307 307 306 306 305 305 304 303 303 303 303 303 303
311 312 311 312 313 311 311 309 310 309 308 307 311 307 310 313 312 312 311 313 313 313 313 312 311 310 307 306 307 306 307 307 307 306 305 305 304 304 304 303 303 302 302 302
306 304 312 311 312 313 313 310 308 309 316 310 307 306 308 310 310 312 312 313 313 313 312 311 309 307 306 306 307 306 307 307 306 305 305 305 304 304 304 303 303 302 302 302
313 312 311 310 310 310 311 307 308 307 308 305 304 308 309 308 310 312 311 312 312 312 311 309 308 307 306 307 307 306 307 307 306 305 305 304 304 304 303 303 302 302 302 302
308 312 310 311 311 310 310 307 305 305 307 312 307 309 309 310 309 311 311 311 312 312 311 309 308 307 308 307 307 306 307 306 305 305 304 304 304 304 303 302 301 301 300 300
306 307 309 310 310 310 307 308 308 306 305 307 306 306 310 305 311 309 311 313 312 312 312 312 310 308 308 308 308 307 306 306 305 305 304 304 303 303 302 301 301 300 299 298
305 305 304 308 307 307 308 309 305 304 306 303 301 303 305 307 308 310 311 312 310 309 311 312 311 309 309 308 308 307 306 306 304 304 304 303 303 302 302 301 300 299 298 297
306 304 303 305 306 305 307 306 308 304 304 304 303 302 304 306 307 308 307 307 307 307 307 308 308 309 308 308 308 307 306 306 304 304 303 303 303 303 302 301 300 299 298 297
306 304 304 305 307 306 305 306 306 304 302 302 303 304 305 306 306 305 306 305 306 306 305 306 306 307 307 308 307 307 306 306 305 304 303 303 303 303 303 302 301 300 299 298
304 303 302 302 303 304 304 306 305 303 304 303 303 303 305 307 304 305 306 306 305 305 305 305 305 305 306 306 306 306 306 306 305 304 303 303 303 302 302 301 300 299 299 298
303 301 306 305 307 303 303 302 303 306 306 305 305 305 304 305 305 305 304 304 303 303 303 304 305 305 305 306 306 306 306 305 304 304 304 303 302 302 301 301 300 299 298 298
305 304 307 310 311 311 311 310 307 304 303 305 305 305 304 304 304 304 304 303 303 302 302 302 302 304 305 305 304 304 304 304 304 304 303 303 302 301 301 299 300 298 298 297
305 305 306 307 309 312 310 308 308 308 308 306 305 304 304 304 304 303 303 302 302 302 301 300 299 298 298 300 303 303 303 302 302 302 302 302 301 299 299 300 298 297 296 295
304 304 307 310 309 309 311 307 307 308 308 304 304 303 304 305 303 301 301 301 301 301 301 300 299 298 297 297 299 300 301 301 301 301 300 299 299 299 297 296 296 296 294 294
305 303 305 307 311 313 309 305 304 305 307 303 304 303 303 305 303 301 301 301 300 300 299 298 298 297 295 294 295 295 296 296 296 296 296 297 297 296 296 294 291 291 291 291
305 305 305 305 306 307 306 304 305 310 307 303 304 303 304 302 303 301 301 300 298 298 297 295 293 293 292 291 290 290 291 291 291 292 291 292 292 292 292 292 292 292 292 290
306 305 305 305 307 309 305 305 307 303 303 303 304 303 302 301 301 301 300 297 295 294 290 290 290 289 289 289 289 290 290 289 291 292 292 292 292 292 292 292 291 291 291 290
308 307 308 307 307 304 304 304 304 303 304 303 302 302 301 301 299 298 296 294 293 290 290 290 290 290 290 290 289 288 288 287 288 290 290 290 291 291 292 292 291 291 290 291
306 306 306 307 305 303 303 303 303 303 302 301 300 300 299 297 295 294 293 291 290 290 290 290 290 290 291 290 289 289 288 287 287 287 288 289 289 289 289 288 290 290 290 290
306 306 306 305 303 302 302 303 302 301 300 300 299 298 295 294 293 292 292 291 290 290 289 290 290 290 290 290 289 288 288 287 287 287 288 288 287 287 287 287 288 290 290 290
305 305 305 305 305 305 304 302 302 300 298 299 297 294 293 293 292 292 291 291 291 291 290 289 289 290 290 290 289 287 287 287 287 287 287 287 288 288 288 288 288 288 289 288
Wind_Speed
3 6 2 5 4 4 3 4 6 1 2 3 6 7 10 13 17 14 15 11 15 15 15 14 13 13 12 9 7 4 1 2 2 3 3 4 4 5 6 8 10 14 15 15
6 2 2 5 5 3 5 6 1 2 3 2 3 9 10 7 9 19 16 15 19 19 17 13 14 13 12 10 7 4 2 2 1 2 3 5 5 6 7 9 12 12 13 14
6 2 5 2 5 5 4 7 3 3 3 0 3 7 2 3 9 10 8 14 17 16 15 13 13 12 12 8 6 4 4 2 1 2 4 5 6 6 7 8 10 12 13 14
5 3 3 3 5 4 2 5 2 5 4 2 3 4 5 3 3 3 8 12 15 12 9 11 11 12 11 9 7 6 5 2 1 2 4 5 7 8 10 11 12 12 13 13
1 4 6 7 3 2 2 2 3 2 4 4 1 4 7 2 3 6 11 11 14 14 11 12 12 10 9 9 8 8 5 3 1 3 5 6 6 8 9 10 10 11 11 12
3 3 3 1 1 3 3 4 6 5 3 2 2 5 5 3 3 3 9 16 19 17 16 15 13 11 10 11 10 8 7 4 2 3 4 5 6 7 8 9 10 11 11 12
5 3 2 3 1 3 4 5 3 4 3 5 3 3 7 2 3 2 10 20 20 18 17 16 15 15 14 12 11 10 8 5 4 4 3 3 4 6 7 10 11 12 12 11
5 4 3 5 2 2 1 4 4 5 3 4 1 5 5 3 0 2 6 22 21 17 14 14 13 13 13 13 13 12 9 6 5 4 4 3 3 5 7 9 11 12 12 13
4 1 1 2 2 2 1 1 3 5 3 3 3 4 3 1 0 2 11 19 17 14 12 13 13 15 15 15 14 13 10 8 7 6 5 4 3 5 7 9 10 12 13 13
1 4 0 1 1 1 1 2 3 3 3 3 5 4 5 5 4 3 5 10 10 10 10 12 13 14 15 15 15 14 12 10 9 8 7 5 5 6 8 9 11 13 14 14
1 3 2 2 4 6 1 0 2 3 4 4 2 6 5 7 5 7 8 7 7 10 12 13 14 15 16 17 17 16 15 13 12 11 9 8 8 8 9 11 13 14 16 16
2 4 3 4 0 1 1 3 4 4 4 2 3 6 3 6 7 6 5 2 2 5 11 19 14 13 15 17 17 17 16 15 13 12 10 10 10 10 11 13 14 16 17 17
1 1 2 6 4 3 3 4 2 4 3 5 5 5 1 6 8 10 10 11 11 8 11 4 12 19 18 19 19 17 15 15 15 13 12 11 11 11 13 14 15 17 19 19
1 1 4 6 3 4 3 4 4 5 3 3 6 3 3 5 5 8 12 13 11 11 12 10 8 8 18 22 21 18 15 14 16 16 14 13 13 14 15 16 17 18 20 21
3 3 0 4 5 3 6 6 8 8 7 7 4 7 3 3 5 9 13 13 14 16 16 18 16 12 7 9 16 15 15 16 18 17 16 16 17 18 18 18 19 20 21 22
3 3 2 4 3 7 6 8 9 12 11 10 10 15 6 9 13 12 13 13 14 14 13 14 15 13 12 11 5 11 14 16 16 18 20 19 21 21 21 21 22 23 23 23
4 3 2 4 2 3 7 9 11 6 5 8 9 7 8 5 9 10 11 12 11 10 12 14 14 13 12 12 9 7 11 15 19 21 22 24 25 24 24 23 26 25 24 24
3 3 2 3 3 2 5 0 2 8 3 7 7 6 9 8 15 15 11 9 8 10 13 14 15 14 14 14 14 13 13 14 16 20 24 25 26 23 24 26 25 26 26 25
3 3 1 2 3 6 4 1 2 5 1 4 7 7 9 7 15 15 10 8 7 10 12 13 16 17 17 18 18 19 19 21 22 22 21 21 23 25 24 23 27 27 26 27
2 4 3 0 3 5 2 1 1 2 2 4 14 9 7 3 4 4 6 6 10 10 12 15 16 18 19 19 20 21 23 23 23 23 22 21 23 25 27 24 24 25 25 26
3 1 5 4 3 7 2 1 1 2 3 10 13 10 7 2 1 6 7 7 7 8 10 12 14 16 18 21 23 23 23 24 25 27 27 28 28 28 26 26 28 29 29 30
6 6 4 3 4 8 2 1 4 6 9 8 5 1 1 2 5 8 10 12 12 12 13 15 18 20 23 24 25 27 28 27 27 28 31 32 31 31 31 33 34 34 34 35
2 5 3 7 4 2 1 2 8 8 6 1 0 1 3 6 8 10 12 12 13 13 16 18 19 22 24 26 29 31 32 30 30 32 34 34 35 36 36 36 38 36 36 35
4 4 2 3 3 3 5 6 5 4 4 3 1 7 8 7 8 12 15 16 17 18 19 19 21 25 30 30 31 32 32 33 33 34 35 36 36 36 38 38 36 36 37 37
4 4 3 5 3 4 8 8 7 5 5 4 8 10 7 9 12 15 18 22 24 26 27 25 25 27 32 35 37 34 33 34 35 34 34 34 34 35 36 36 36 35 37 38
10 12 8 9 11 6 4 6 8 7 7 9 8 8 9 11 15 18 24 27 31 33 32 32 30 32 35 38 40 36 35 34 32 31 32 35 36 37 37 37 37 36 37 38
Wind_Direction
177 75 164 242 231 267 210 230 128 144 201 159 230 263 255 247 221 221 213 201 170 170 172 189 201 207 209 211 219 210 248 342 62 57 43 26 6 3 348 346 337 337 338 337
41 116 274 284 256 279 352 168 80 82 171 137 360 277 263 214 220 227 222 181 161 163 169 183 197 205 204 204 207 205 250 136 91 32 25 17 1 346 343 341 337 335 331 335
128 214 308 321 33 48 22 102 157 143 160 34 347 300 291 38 121 140 124 172 173 180 182 196 198 196 195 201 204 206 174 163 83 33 10 356 349 347 343 341 342 341 340 339
78 322 339 43 74 3 78 332 51 66 84 192 109 268 304 191 141 154 160 152 164 176 185 186 186 191 203 206 198 185 181 180 150 357 348 352 357 359 359 354 350 347 341 340
280 23 21 57 343 317 154 57 74 56 91 66 305 78 268 110 216 220 202 178 172 178 180 179 189 209 200 198 194 189 193 189 261 334 347 356 358 2 3 0 359 355 354 351
103 70 59 78 357 34 148 71 32 41 73 43 291 127 285 234 264 173 185 172 161 166 172 183 204 216 212 199 198 202 204 211 267 311 335 347 354 3 8 8 7 3 360 355
35 17 12 25 28 340 66 64 1 358 8 214 285 51 245 276 354 90 172 168 165 178 191 205 215 218 211 206 204 210 210 232 274 304 322 332 347 3 6 4 2 359 357 354
137 329 4 343 70 170 102 145 153 200 193 258 19 235 262 176 160 88 170 170 174 190 208 221 225 218 213 212 213 217 224 246 267 271 278 299 339 353 354 354 352 350 348 347
133 335 209 51 343 75 217 38 172 109 9 59 239 276 307 181 324 112 142 169 185 199 219 228 227 225 224 223 225 229 237 251 258 258 262 283 316 334 339 341 342 342 339 337
156 95 234 245 359 332 199 199 59 358 163 253 297 275 232 231 210 203 154 190 200 217 240 245 244 238 237 242 240 240 246 256 260 259 263 273 294 311 319 329 336 336 333 330
67 106 278 62 205 187 109 249 70 113 144 173 261 264 220 198 203 187 207 209 222 243 260 258 252 250 250 248 246 247 247 252 256 255 260 274 291 307 318 323 327 329 328 325
33 121 160 226 112 39 258 230 157 129 220 216 145 275 268 161 170 123 105 117 352 354 307 253 260 261 256 256 258 260 259 258 258 258 265 279 294 303 313 320 322 322 320 318
294 185 51 341 352 355 231 226 171 112 79 214 139 263 124 93 80 72 69 62 51 41 48 41 254 249 258 257 256 260 268 266 262 262 269 280 290 303 312 313 313 315 316 315
61 82 162 194 200 133 210 226 191 132 133 192 227 224 162 143 131 83 76 70 52 28 10 346 324 307 254 251 249 255 265 272 271 268 270 279 289 297 304 307 307 308 310 309
116 199 88 265 249 233 218 208 191 193 203 183 228 205 177 152 123 97 89 68 55 48 38 32 27 18 348 269 246 254 252 271 285 276 277 285 292 295 297 297 296 299 304 305
14 308 32 296 257 205 249 239 219 228 242 249 270 277 146 135 123 101 90 81 63 46 34 28 28 26 18 7 316 258 275 279 280 283 283 285 291 292 292 293 297 299 300 301
156 139 91 271 319 351 289 245 207 197 198 203 226 222 155 118 111 101 84 64 50 34 16 10 7 3 1 1 359 318 281 277 283 288 288 290 294 296 296 296 300 297 300 300
159 139 131 264 18 219 251 20 296 197 253 214 94 108 114 121 106 88 72 56 35 7 360 357 353 347 340 326 314 310 312 304 295 293 297 299 299 297 293 298 295 299 300 298
124 133 226 212 222 287 253 204 191 177 157 6 132 117 96 102 116 64 52 53 31 4 354 349 342 339 335 330 325 319 314 311 307 306 306 300 294 294 293 289 294 296 298 298
73 97 140 252 223 248 282 222 104 109 253 57 119 109 85 85 169 165 42 13 350 346 343 340 339 336 336 338 332 324 320 319 320 319 314 306 301 296 295 299 303 304 302 300
133 178 205 230 266 284 327 159 348 134 230 112 112 103 86 86 267 319 311 335 328 319 322 326 328 331 332 330 327 322 320 317 317 314 312 309 305 302 301 301 306 305 301 296
171 155 205 177 219 271 159 97 199 144 137 135 117 120 216 270 273 285 297 311 316 325 334 336 332 330 329 327 323 318 313 312 306 302 300 299 299 296 296 297 302 301 300 297
234 195 188 195 225 114 193 200 139 152 138 286 178 243 230 254 277 287 298 301 304 310 318 322 326 327 329 329 320 313 310 310 306 303 300 299 297 296 295 295 295 292 292 294
332 28 233 342 151 162 149 142 161 144 133 171 240 260 261 272 279 289 294 293 292 292 296 303 308 316 320 324 322 314 311 310 308 303 300 301 301 298 296 295 293 291 288 289
212 351 265 264 192 169 203 219 191 180 186 241 244 250 268 281 290 294 295 297 296 295 294 294 302 305 310 314 316 312 309 309 307 304 302 302 301 299 298 296 293 289 286 288
218 249 247 264 273 230 200 200 189 202 219 240 246 264 280 287 296 305 302 303 300 298 296 295 297 303 304 306 309 308 308 308 306 304 306 306 303 301 299 298 297 291 288 290